,,PA_Meas_PMT16A,,PR_Meas_QMR101_102,,RH_Meas_QMH101,,SR_Meas_QMS101,,TA_Meas_QMH101,,GenWind,,GenWind,
time,status,PA,status,PR,status,RH,status,SR,status,TA,status,DirAvg,status,SpdAvg,
2013-04-22, 00:00:05,VALID,917.576,VALID,0,VALID,94.4236,VALID,0,VALID,21.2047,VALID,4,VALID,0,
2013-04-22, 00:01:05,VALID,917.553,VALID,0,VALID,94.3703,VALID,0,VALID,21.1657,VALID,4,VALID,0,
2013-04-22, 00:02:05,VALID,917.512,VALID,0,VALID,94.4008,VALID,0,VALID,21.1461,VALID,4,VALID,0,
2013-04-22, 00:03:05,VALID,917.524,VALID,0,VALID,94.4846,VALID,0,VALID,21.1266,VALID,4,VALID,0,
2013-04-22, 00:04:05,VALID,917.47,VALID,0,VALID,94.6142,VALID,0,VALID,21.086,VALID,4,VALID,0,
2013-04-22, 00:05:05,VALID,917.456,VALID,0,VALID,94.7133,VALID,0,VALID,21.086,VALID,4,VALID,0,
2013-04-22, 00:06:05,VALID,917.421,VALID,0,VALID,94.82,VALID,0,VALID,21.1071,VALID,4,VALID,0,
2013-04-22, 00:07:05,VALID,917.411,VALID,0,VALID,94.9039,VALID,0,VALID,21.0876,VALID,4,VALID,0,
2013-04-22, 00:08:05,VALID,917.365,VALID,0,VALID,94.9725,VALID,0.107441,VALID,21.047,VALID,4,VALID,0,
2013-04-22, 00:09:05,VALID,917.363,VALID,0,VALID,94.9192,VALID,0,VALID,21.0275,VALID,46,VALID,0,
2013-04-22, 00:10:05,VALID,917.332,VALID,0,VALID,94.9725,VALID,0.107441,VALID,21.008,VALID,46,VALID,0,
2013-04-22, 00:11:05,VALID,917.336,VALID,0,VALID,95.064,VALID,0,VALID,20.9885,VALID,47,VALID,0,
2013-04-22, 00:12:05,VALID,917.321,VALID,0,VALID,95.0945,VALID,0,VALID,20.969,VALID,47,VALID,0,
2013-04-22, 00:13:05,VALID,917.311,VALID,0,VALID,95.1707,VALID,0,VALID,20.969,VALID,47,VALID,0,
2013-04-22, 00:14:05,VALID,917.298,VALID,0,VALID,95.2393,VALID,0,VALID,20.9495,VALID,46,VALID,0,
2013-04-22, 00:15:05,VALID,917.288,VALID,0,VALID,95.3079,VALID,0,VALID,20.9495,VALID,47,VALID,0,
2013-04-22, 00:16:05,VALID,917.293,VALID,0,VALID,95.3918,VALID,0,VALID,20.9511,VALID,47,VALID,0,
2013-04-22, 00:17:05,VALID,917.291,VALID,0,VALID,95.4985,VALID,0,VALID,20.9316,VALID,70,VALID,0,
2013-04-22, 00:18:05,VALID,917.286,VALID,0,VALID,95.529,VALID,0,VALID,20.9511,VALID,113,VALID,0,
2013-04-22, 00:19:05,VALID,917.27,VALID,0,VALID,95.5976,VALID,0,VALID,20.9527,VALID,113,VALID,0,
2013-04-22, 00:20:05,VALID,917.264,VALID,0,VALID,95.651,VALID,0,VALID,20.9316,VALID,113,VALID,0,
2013-04-22, 00:21:05,VALID,917.255,VALID,0,VALID,95.7044,VALID,0,VALID,20.9722,VALID,112,VALID,0,
2013-04-22, 00:22:05,VALID,917.258,VALID,0,VALID,95.7654,VALID,0,VALID,20.9917,VALID,112,VALID,0,
2013-04-22, 00:23:05,VALID,917.207,VALID,0,VALID,95.8416,VALID,0,VALID,20.9511,VALID,113,VALID,0,
2013-04-22, 00:24:05,VALID,917.214,VALID,0,VALID,95.895,VALID,0,VALID,20.9706,VALID,113,VALID,0,
2013-04-22, 00:25:05,VALID,917.164,VALID,0,VALID,95.9331,VALID,0,VALID,20.9706,VALID,112,VALID,0,
2013-04-22, 00:26:05,VALID,917.146,VALID,0,VALID,95.9864,VALID,0,VALID,21.0096,VALID,113,VALID,0,
2013-04-22, 00:27:05,VALID,917.129,VALID,0,VALID,96.0169,VALID,0,VALID,21.0096,VALID,112,VALID,0,
2013-04-22, 00:28:05,VALID,917.113,VALID,0,VALID,96.0474,VALID,0,VALID,21.0291,VALID,112,VALID,0,
2013-04-22, 00:29:05,VALID,917.102,VALID,0,VALID,96.055,VALID,0,VALID,21.0291,VALID,112,VALID,0,
2013-04-22, 00:30:05,VALID,917.091,VALID,0,VALID,96.0474,VALID,0,VALID,21.0291,VALID,112,VALID,0,
2013-04-22, 00:31:05,VALID,917.083,VALID,0,VALID,96.0627,VALID,0.107441,VALID,21.0486,VALID,112,VALID,0,
2013-04-22, 00:32:05,VALID,917.076,VALID,0,VALID,96.0474,VALID,0.107441,VALID,21.008,VALID,112,VALID,0,
2013-04-22, 00:33:05,VALID,917.083,VALID,0,VALID,96.0627,VALID,0,VALID,21.0291,VALID,113,VALID,0,
2013-04-22, 00:34:05,VALID,917.063,VALID,0,VALID,96.0627,VALID,0,VALID,20.9885,VALID,112,VALID,0,
2013-04-22, 00:35:05,VALID,917.044,VALID,0,VALID,96.055,VALID,0,VALID,20.9901,VALID,112,VALID,0,
2013-04-22, 00:36:05,VALID,916.993,VALID,0,VALID,96.0703,VALID,0,VALID,20.9901,VALID,113,VALID,0,
2013-04-22, 00:37:05,VALID,916.964,VALID,0,VALID,96.0398,VALID,0,VALID,21.0096,VALID,113,VALID,0,
2013-04-22, 00:38:05,VALID,916.921,VALID,0,VALID,96.0474,VALID,0,VALID,21.0291,VALID,112,VALID,0,
2013-04-22, 00:39:05,VALID,916.875,VALID,0,VALID,96.0245,VALID,0.107441,VALID,21.0486,VALID,112,VALID,0,
2013-04-22, 00:40:05,VALID,916.855,VALID,0,VALID,96.0398,VALID,0,VALID,21.0681,VALID,112,VALID,0,
2013-04-22, 00:41:05,VALID,916.852,VALID,0,VALID,96.0245,VALID,0,VALID,21.0876,VALID,112,VALID,0,
2013-04-22, 00:42:05,VALID,916.817,VALID,0,VALID,96.0093,VALID,0,VALID,21.0876,VALID,112,VALID,0,
2013-04-22, 00:43:05,VALID,916.839,VALID,0,VALID,96.0093,VALID,0,VALID,21.1071,VALID,113,VALID,0,
2013-04-22, 00:44:05,VALID,916.833,VALID,0,VALID,96.0169,VALID,0,VALID,21.1657,VALID,113,VALID,0,
2013-04-22, 00:45:05,VALID,916.795,VALID,0,VALID,95.9712,VALID,0,VALID,21.164,VALID,113,VALID,0,
2013-04-22, 00:46:05,VALID,916.784,VALID,0,VALID,95.9636,VALID,0.107441,VALID,21.1836,VALID,112,VALID,0,
2013-04-22, 00:47:05,VALID,916.736,VALID,0,VALID,95.9178,VALID,0,VALID,21.2437,VALID,112,VALID,0,
2013-04-22, 00:48:05,VALID,916.733,VALID,0,VALID,95.9178,VALID,0,VALID,21.2437,VALID,112,VALID,0,
2013-04-22, 00:49:05,VALID,916.753,VALID,0,VALID,95.8721,VALID,0.107441,VALID,21.2437,VALID,112,VALID,0,
2013-04-22, 00:50:05,VALID,916.741,VALID,0,VALID,95.8187,VALID,0.107441,VALID,21.2437,VALID,113,VALID,0,
2013-04-22, 00:51:05,VALID,916.71,VALID,0,VALID,95.7349,VALID,0,VALID,21.2242,VALID,113,VALID,0,
2013-04-22, 00:52:05,VALID,916.677,VALID,0,VALID,95.7425,VALID,0,VALID,21.2242,VALID,112,VALID,0,
2013-04-22, 00:53:05,VALID,916.647,VALID,0,VALID,95.7196,VALID,0,VALID,21.2242,VALID,113,VALID,0,
2013-04-22, 00:54:05,VALID,916.624,VALID,0,VALID,95.7044,VALID,0,VALID,21.2226,VALID,112,VALID,0,
2013-04-22, 00:55:05,VALID,916.586,VALID,0,VALID,95.6586,VALID,0,VALID,21.2031,VALID,112,VALID,0,
2013-04-22, 00:56:05,VALID,916.579,VALID,0,VALID,95.6434,VALID,0,VALID,21.2031,VALID,112,VALID,0,
2013-04-22, 00:57:05,VALID,916.547,VALID,0,VALID,95.651,VALID,0,VALID,21.2047,VALID,112,VALID,0,
2013-04-22, 00:58:05,VALID,916.5,VALID,0,VALID,95.6205,VALID,0,VALID,21.164,VALID,112,VALID,0,
2013-04-22, 00:59:05,VALID,916.493,VALID,0,VALID,95.6281,VALID,0,VALID,21.1657,VALID,94,VALID,0,
2013-04-22, 01:00:05,VALID,916.531,VALID,0,VALID,95.6815,VALID,0.107441,VALID,21.1461,VALID,89,VALID,0,
2013-04-22, 01:01:05,VALID,916.485,VALID,0,VALID,95.6891,VALID,0,VALID,21.1461,VALID,72,VALID,0,
2013-04-22, 01:02:05,VALID,916.505,VALID,0,VALID,95.6434,VALID,0,VALID,21.1071,VALID,71,VALID,0,
2013-04-22, 01:03:05,VALID,916.512,VALID,0,VALID,95.6129,VALID,0,VALID,21.086,VALID,72,VALID,0,
2013-04-22, 01:04:05,VALID,916.505,VALID,0,VALID,95.6205,VALID,0,VALID,21.0876,VALID,72,VALID,0,
2013-04-22, 01:05:05,VALID,916.51,VALID,0,VALID,95.5671,VALID,0,VALID,21.0681,VALID,72,VALID,0,
2013-04-22, 01:06:05,VALID,916.505,VALID,0,VALID,95.5824,VALID,0,VALID,21.0681,VALID,72,VALID,0,
2013-04-22, 01:07:05,VALID,916.521,VALID,0,VALID,95.6357,VALID,0,VALID,21.0486,VALID,72,VALID,0,
2013-04-22, 01:08:05,VALID,916.516,VALID,0,VALID,95.651,VALID,0,VALID,21.0486,VALID,72,VALID,0,
2013-04-22, 01:09:05,VALID,916.5,VALID,0,VALID,95.7044,VALID,0,VALID,21.0876,VALID,72,VALID,0,
2013-04-22, 01:10:05,VALID,916.499,VALID,0,VALID,95.7044,VALID,0,VALID,21.0681,VALID,72,VALID,0,
2013-04-22, 01:11:05,VALID,916.52,VALID,0,VALID,95.6967,VALID,0,VALID,21.0665,VALID,72,VALID,0,
2013-04-22, 01:12:05,VALID,916.476,VALID,0,VALID,95.7349,VALID,0,VALID,21.0876,VALID,72,VALID,0,
2013-04-22, 01:13:05,VALID,916.464,VALID,0,VALID,95.7349,VALID,0.107441,VALID,21.1071,VALID,72,VALID,0,
2013-04-22, 01:14:05,VALID,916.416,VALID,0,VALID,95.7501,VALID,0,VALID,21.1266,VALID,72,VALID,0,
2013-04-22, 01:15:05,VALID,916.361,VALID,0,VALID,95.7806,VALID,0.107441,VALID,21.1657,VALID,72,VALID,0,
2013-04-22, 01:16:05,VALID,916.345,VALID,0,VALID,95.7882,VALID,0,VALID,21.1461,VALID,72,VALID,0,
2013-04-22, 01:17:05,VALID,916.306,VALID,0,VALID,95.6967,VALID,0,VALID,21.1071,VALID,72,VALID,0,
2013-04-22, 01:18:05,VALID,916.305,VALID,0,VALID,95.6586,VALID,0,VALID,21.0876,VALID,72,VALID,0,
2013-04-22, 01:19:05,VALID,916.267,VALID,0,VALID,95.6739,VALID,0,VALID,21.0876,VALID,72,VALID,0,
2013-04-22, 01:20:05,VALID,916.279,VALID,0,VALID,95.6815,VALID,0,VALID,21.0876,VALID,72,VALID,0,
2013-04-22, 01:21:05,VALID,916.225,VALID,0,VALID,95.7044,VALID,0.107441,VALID,21.0486,VALID,72,VALID,0,
2013-04-22, 01:22:05,VALID,916.248,VALID,0,VALID,95.6967,VALID,0,VALID,21.0291,VALID,72,VALID,0,
2013-04-22, 01:23:05,VALID,916.21,VALID,0,VALID,95.7272,VALID,0,VALID,21.0291,VALID,72,VALID,0,
2013-04-22, 01:24:05,VALID,916.223,VALID,0,VALID,95.773,VALID,0.107441,VALID,21.0486,VALID,72,VALID,0,
2013-04-22, 01:25:05,VALID,916.221,VALID,0,VALID,95.834,VALID,0,VALID,21.0681,VALID,72,VALID,0,
2013-04-22, 01:26:05,VALID,916.221,VALID,0.2,VALID,95.8568,VALID,0,VALID,21.047,VALID,73,VALID,0,
2013-04-22, 01:27:05,VALID,916.208,VALID,0,VALID,95.8645,VALID,0,VALID,21.0876,VALID,73,VALID,0,
2013-04-22, 01:28:05,VALID,916.196,VALID,0,VALID,95.9026,VALID,0,VALID,21.0876,VALID,73,VALID,0,
2013-04-22, 01:29:05,VALID,916.189,VALID,0,VALID,95.895,VALID,0,VALID,21.1087,VALID,73,VALID,0,
2013-04-22, 01:30:05,VALID,916.19,VALID,0,VALID,95.9178,VALID,0,VALID,21.1071,VALID,73,VALID,0,
2013-04-22, 01:31:05,VALID,916.15,VALID,0.2,VALID,95.9407,VALID,0,VALID,21.1055,VALID,73,VALID,0,
2013-04-22, 01:32:05,VALID,916.212,VALID,0,VALID,95.9483,VALID,0,VALID,21.0876,VALID,73,VALID,0,
2013-04-22, 01:33:05,VALID,916.208,VALID,0,VALID,95.9254,VALID,0,VALID,21.1071,VALID,73,VALID,0,
2013-04-22, 01:34:05,VALID,916.243,VALID,0,VALID,95.9331,VALID,0,VALID,21.1461,VALID,73,VALID,0,
2013-04-22, 01:35:05,VALID,916.219,VALID,0,VALID,95.9712,VALID,0,VALID,21.125,VALID,73,VALID,0,
2013-04-22, 01:36:05,VALID,916.22,VALID,0,VALID,95.9712,VALID,0,VALID,21.164,VALID,73,VALID,0,
2013-04-22, 01:37:04,VALID,916.253,VALID,0,VALID,95.9712,VALID,0,VALID,21.1836,VALID,73,VALID,0,
2013-04-22, 01:38:04,VALID,916.198,VALID,0,VALID,96.0093,VALID,0,VALID,21.2437,VALID,73,VALID,0,
2013-04-22, 01:39:04,VALID,916.214,VALID,0,VALID,96.0169,VALID,0,VALID,21.2843,VALID,74,VALID,0,
2013-04-22, 01:40:04,VALID,916.185,VALID,0,VALID,96.0398,VALID,0,VALID,21.2616,VALID,73,VALID,0,
2013-04-22, 01:41:04,VALID,916.17,VALID,0,VALID,96.0322,VALID,0,VALID,21.2811,VALID,73,VALID,0,
2013-04-22, 01:42:04,VALID,916.161,VALID,0,VALID,95.9941,VALID,0,VALID,21.2632,VALID,73,VALID,0,
2013-04-22, 01:43:04,VALID,916.112,VALID,0,VALID,95.9636,VALID,0,VALID,21.2437,VALID,73,VALID,0,
2013-04-22, 01:44:04,VALID,916.101,VALID,0,VALID,95.9483,VALID,0,VALID,21.2031,VALID,73,VALID,0,
2013-04-22, 01:45:04,VALID,916.12,VALID,0,VALID,95.9483,VALID,0.107441,VALID,21.2437,VALID,73,VALID,0,
2013-04-22, 01:46:04,VALID,916.057,VALID,0,VALID,95.9483,VALID,0.107441,VALID,21.2226,VALID,73,VALID,0,
2013-04-22, 01:47:04,VALID,916.096,VALID,0,VALID,95.9407,VALID,0,VALID,21.2031,VALID,73,VALID,0,
2013-04-22, 01:48:04,VALID,916.077,VALID,0,VALID,95.9559,VALID,0,VALID,21.2421,VALID,73,VALID,0,
2013-04-22, 01:49:04,VALID,916.034,VALID,0,VALID,95.9407,VALID,0,VALID,21.2421,VALID,74,VALID,0,
2013-04-22, 01:50:04,VALID,916.058,VALID,0,VALID,95.9331,VALID,0,VALID,21.2226,VALID,73,VALID,0,
2013-04-22, 01:51:04,VALID,916.009,VALID,0,VALID,95.9636,VALID,0,VALID,21.2226,VALID,73,VALID,0,
2013-04-22, 01:52:04,VALID,916.008,VALID,0,VALID,95.9712,VALID,0,VALID,21.2437,VALID,73,VALID,0,
2013-04-22, 01:53:04,VALID,915.986,VALID,0,VALID,95.9407,VALID,0,VALID,21.2437,VALID,73,VALID,0,
2013-04-22, 01:54:04,VALID,915.98,VALID,0,VALID,95.9941,VALID,0,VALID,21.3022,VALID,73,VALID,0,
2013-04-22, 01:55:04,VALID,915.978,VALID,0,VALID,96.0093,VALID,0,VALID,21.3217,VALID,73,VALID,0,
2013-04-22, 01:56:04,VALID,915.967,VALID,0,VALID,95.9864,VALID,0.107441,VALID,21.3022,VALID,73,VALID,0,
2013-04-22, 01:57:04,VALID,915.957,VALID,0,VALID,95.9636,VALID,0,VALID,21.2827,VALID,73,VALID,0,
2013-04-22, 01:58:04,VALID,915.947,VALID,0,VALID,95.9331,VALID,0,VALID,21.2632,VALID,73,VALID,0,
2013-04-22, 01:59:04,VALID,915.939,VALID,0,VALID,95.9026,VALID,0,VALID,21.2421,VALID,73,VALID,0,
2013-04-22, 02:00:04,VALID,915.903,VALID,0,VALID,95.8416,VALID,0,VALID,21.2031,VALID,73,VALID,0,
2013-04-22, 02:01:04,VALID,915.886,VALID,0,VALID,95.773,VALID,0,VALID,21.2242,VALID,73,VALID,0,
2013-04-22, 02:02:04,VALID,915.885,VALID,0,VALID,95.7958,VALID,0,VALID,21.2242,VALID,73,VALID,0,
2013-04-22, 02:03:04,VALID,915.851,VALID,0,VALID,95.8187,VALID,0,VALID,21.1852,VALID,73,VALID,0,
2013-04-22, 02:04:04,VALID,915.847,VALID,0,VALID,95.8263,VALID,0,VALID,21.1852,VALID,73,VALID,0,
2013-04-22, 02:05:04,VALID,915.854,VALID,0,VALID,95.8263,VALID,0,VALID,21.1461,VALID,30,VALID,0,
2013-04-22, 02:06:04,VALID,915.818,VALID,0,VALID,95.834,VALID,0,VALID,21.1266,VALID,25,VALID,0,
2013-04-22, 02:07:04,VALID,915.823,VALID,0,VALID,95.8263,VALID,0,VALID,21.0665,VALID,29,VALID,0,
2013-04-22, 02:08:04,VALID,915.821,VALID,0,VALID,95.8416,VALID,0,VALID,21.0486,VALID,4,VALID,0,
2013-04-22, 02:09:04,VALID,915.775,VALID,0,VALID,95.8797,VALID,0.107441,VALID,21.0096,VALID,352,VALID,0,
2013-04-22, 02:10:04,VALID,915.778,VALID,0,VALID,95.9407,VALID,0,VALID,20.9885,VALID,352,VALID,0,
2013-04-22, 02:11:04,VALID,915.779,VALID,0,VALID,96.0093,VALID,0,VALID,21.008,VALID,352,VALID,0,
2013-04-22, 02:12:04,VALID,915.745,VALID,0,VALID,96.055,VALID,0,VALID,21.0275,VALID,352,VALID,0,
2013-04-22, 02:13:04,VALID,915.699,VALID,0.2,VALID,96.116,VALID,0,VALID,21.0291,VALID,352,VALID,0,
2013-04-22, 02:14:04,VALID,915.692,VALID,0,VALID,96.116,VALID,0,VALID,21.0291,VALID,352,VALID,0,
2013-04-22, 02:15:04,VALID,915.653,VALID,0,VALID,96.1694,VALID,0,VALID,21.0275,VALID,355,VALID,0,
2013-04-22, 02:16:04,VALID,915.607,VALID,0,VALID,96.2228,VALID,0,VALID,21.0486,VALID,12,VALID,0,
2013-04-22, 02:17:04,VALID,915.622,VALID,0,VALID,96.2151,VALID,0,VALID,21.0697,VALID,17,VALID,0,
2013-04-22, 02:18:04,VALID,915.642,VALID,0,VALID,96.2456,VALID,0,VALID,21.0892,VALID,17,VALID,0,
2013-04-22, 02:19:04,VALID,915.645,VALID,0,VALID,96.2837,VALID,0,VALID,21.1087,VALID,17,VALID,0,
2013-04-22, 02:20:04,VALID,915.639,VALID,0,VALID,96.299,VALID,0,VALID,21.0876,VALID,17,VALID,0,
2013-04-22, 02:21:04,VALID,915.687,VALID,0,VALID,96.299,VALID,0,VALID,21.1087,VALID,17,VALID,0,
2013-04-22, 02:22:04,VALID,915.699,VALID,0,VALID,96.3295,VALID,0,VALID,21.1087,VALID,17,VALID,0,
2013-04-22, 02:23:04,VALID,915.704,VALID,0,VALID,96.3295,VALID,0,VALID,21.0876,VALID,17,VALID,0,
2013-04-22, 02:24:04,VALID,915.686,VALID,0,VALID,96.36,VALID,0,VALID,21.0876,VALID,17,VALID,0,
2013-04-22, 02:25:04,VALID,915.687,VALID,0,VALID,96.3676,VALID,0,VALID,21.1282,VALID,17,VALID,0,
2013-04-22, 02:26:04,VALID,915.661,VALID,0,VALID,96.3676,VALID,0,VALID,21.0502,VALID,17,VALID,0,
2013-04-22, 02:27:04,VALID,915.668,VALID,0,VALID,96.3447,VALID,0,VALID,21.0112,VALID,17,VALID,0,
2013-04-22, 02:28:04,VALID,915.665,VALID,0,VALID,96.3752,VALID,0,VALID,21.0307,VALID,17,VALID,0,
2013-04-22, 02:29:04,VALID,915.686,VALID,0,VALID,96.3905,VALID,0,VALID,21.0502,VALID,17,VALID,0,
2013-04-22, 02:30:04,VALID,915.689,VALID,0,VALID,96.4286,VALID,0,VALID,21.0697,VALID,17,VALID,0,
2013-04-22, 02:31:04,VALID,915.709,VALID,0,VALID,96.4133,VALID,0,VALID,21.047,VALID,17,VALID,0,
2013-04-22, 02:32:04,VALID,915.713,VALID,0,VALID,96.3829,VALID,0,VALID,20.969,VALID,17,VALID,0,
2013-04-22, 02:33:04,VALID,915.722,VALID,0,VALID,96.3905,VALID,0,VALID,20.9901,VALID,17,VALID,0,
2013-04-22, 02:34:04,VALID,915.676,VALID,0,VALID,96.3752,VALID,0.107441,VALID,20.93,VALID,17,VALID,0,
2013-04-22, 02:35:04,VALID,915.682,VALID,0,VALID,96.421,VALID,0,VALID,20.93,VALID,17,VALID,0,
2013-04-22, 02:36:04,VALID,915.675,VALID,0,VALID,96.4057,VALID,0,VALID,20.891,VALID,17,VALID,0,
2013-04-22, 02:37:04,VALID,915.631,VALID,0,VALID,96.421,VALID,0,VALID,20.912,VALID,17,VALID,0,
2013-04-22, 02:38:04,VALID,915.604,VALID,0,VALID,96.421,VALID,0,VALID,20.8519,VALID,42,VALID,0,
2013-04-22, 02:39:04,VALID,915.581,VALID,0,VALID,96.4286,VALID,0,VALID,20.8535,VALID,49,VALID,0,
2013-04-22, 02:40:04,VALID,915.608,VALID,0,VALID,96.4362,VALID,0.107441,VALID,20.8129,VALID,49,VALID,0,
2013-04-22, 02:41:04,VALID,915.578,VALID,0,VALID,96.4667,VALID,0,VALID,20.7934,VALID,49,VALID,0,
2013-04-22, 02:42:04,VALID,915.595,VALID,0,VALID,96.4591,VALID,0,VALID,20.795,VALID,49,VALID,0,
2013-04-22, 02:43:04,VALID,915.591,VALID,0,VALID,96.4819,VALID,0.107441,VALID,20.7739,VALID,49,VALID,0,
2013-04-22, 02:44:04,VALID,915.614,VALID,0,VALID,96.4896,VALID,0.107441,VALID,20.7934,VALID,49,VALID,0,
2013-04-22, 02:45:04,VALID,915.618,VALID,0,VALID,96.5201,VALID,0,VALID,20.7739,VALID,49,VALID,0,
2013-04-22, 02:46:04,VALID,915.599,VALID,0,VALID,96.5201,VALID,0.107441,VALID,20.7739,VALID,49,VALID,0,
2013-04-22, 02:47:04,VALID,915.563,VALID,0,VALID,96.5506,VALID,0,VALID,20.7755,VALID,49,VALID,0,
2013-04-22, 02:48:04,VALID,915.545,VALID,0,VALID,96.5429,VALID,0.107441,VALID,20.7544,VALID,49,VALID,0,
2013-04-22, 02:49:04,VALID,915.544,VALID,0,VALID,96.5429,VALID,0,VALID,20.756,VALID,49,VALID,0,
2013-04-22, 02:50:04,VALID,915.538,VALID,0,VALID,96.5582,VALID,0.107441,VALID,20.795,VALID,49,VALID,0,
2013-04-22, 02:51:04,VALID,915.547,VALID,0,VALID,96.5582,VALID,0.107441,VALID,20.7739,VALID,49,VALID,0,
2013-04-22, 02:52:04,VALID,915.538,VALID,0,VALID,96.5734,VALID,0.107441,VALID,20.7755,VALID,49,VALID,0,
2013-04-22, 02:53:04,VALID,915.523,VALID,0,VALID,96.5734,VALID,0,VALID,20.7365,VALID,49,VALID,0,
2013-04-22, 02:54:04,VALID,915.538,VALID,0,VALID,96.5887,VALID,0,VALID,20.7365,VALID,49,VALID,0,
2013-04-22, 02:55:04,VALID,915.56,VALID,0,VALID,96.5582,VALID,0,VALID,20.7365,VALID,49,VALID,0,
2013-04-22, 02:56:04,VALID,915.544,VALID,0,VALID,96.5811,VALID,0.107441,VALID,20.7154,VALID,49,VALID,0,
2013-04-22, 02:57:04,VALID,915.534,VALID,0,VALID,96.6039,VALID,0.107441,VALID,20.7365,VALID,49,VALID,0,
2013-04-22, 02:58:04,VALID,915.542,VALID,0,VALID,96.5963,VALID,0,VALID,20.7154,VALID,49,VALID,0,
2013-04-22, 02:59:04,VALID,915.566,VALID,0,VALID,96.6039,VALID,0.107441,VALID,20.7544,VALID,49,VALID,0,
2013-04-22, 03:00:04,VALID,915.603,VALID,0,VALID,96.5963,VALID,0,VALID,20.7544,VALID,49,VALID,0,
2013-04-22, 03:01:04,VALID,915.632,VALID,0,VALID,96.6268,VALID,0,VALID,20.756,VALID,49,VALID,0,
2013-04-22, 03:02:04,VALID,915.647,VALID,0,VALID,96.6039,VALID,0.107441,VALID,20.795,VALID,49,VALID,0,
2013-04-22, 03:03:04,VALID,915.694,VALID,0,VALID,96.5887,VALID,0,VALID,20.795,VALID,49,VALID,0,
2013-04-22, 03:04:04,VALID,915.739,VALID,0,VALID,96.6192,VALID,0.107441,VALID,20.7934,VALID,49,VALID,0,
2013-04-22, 03:05:04,VALID,915.773,VALID,0,VALID,96.6192,VALID,0.107441,VALID,20.8145,VALID,49,VALID,0,
2013-04-22, 03:06:04,VALID,915.813,VALID,0,VALID,96.6344,VALID,0.107441,VALID,20.8129,VALID,49,VALID,0,
2013-04-22, 03:07:04,VALID,915.835,VALID,0,VALID,96.6268,VALID,0,VALID,20.834,VALID,49,VALID,0,
2013-04-22, 03:08:04,VALID,915.874,VALID,0,VALID,96.6192,VALID,0,VALID,20.7739,VALID,49,VALID,0,
2013-04-22, 03:09:04,VALID,915.893,VALID,0,VALID,96.6344,VALID,0,VALID,20.7755,VALID,49,VALID,0,
2013-04-22, 03:10:04,VALID,915.914,VALID,0,VALID,96.6039,VALID,0.107441,VALID,20.756,VALID,49,VALID,0,
2013-04-22, 03:11:04,VALID,915.967,VALID,0,VALID,96.6115,VALID,0.107441,VALID,20.7154,VALID,49,VALID,0,
2013-04-22, 03:12:04,VALID,915.993,VALID,0,VALID,96.5887,VALID,0,VALID,20.7365,VALID,49,VALID,0,
2013-04-22, 03:13:04,VALID,915.978,VALID,0,VALID,96.6268,VALID,0,VALID,20.7154,VALID,49,VALID,0,
2013-04-22, 03:14:04,VALID,916.034,VALID,0,VALID,96.6344,VALID,0,VALID,20.7154,VALID,49,VALID,0,
2013-04-22, 03:15:04,VALID,916.007,VALID,0,VALID,96.6192,VALID,0.107441,VALID,20.7365,VALID,49,VALID,0,
2013-04-22, 03:16:04,VALID,915.997,VALID,0,VALID,96.6344,VALID,0,VALID,20.7365,VALID,49,VALID,0,
2013-04-22, 03:17:04,VALID,916.023,VALID,0,VALID,96.6344,VALID,0,VALID,20.756,VALID,49,VALID,0,
2013-04-22, 03:18:04,VALID,915.993,VALID,0,VALID,96.6497,VALID,0,VALID,20.7755,VALID,49,VALID,0,
2013-04-22, 03:19:04,VALID,915.999,VALID,0,VALID,96.6649,VALID,0,VALID,20.795,VALID,49,VALID,0,
2013-04-22, 03:20:04,VALID,915.986,VALID,0,VALID,96.6649,VALID,0,VALID,20.8145,VALID,49,VALID,0,
2013-04-22, 03:21:04,VALID,915.953,VALID,0,VALID,96.6802,VALID,0,VALID,20.8129,VALID,49,VALID,0,
2013-04-22, 03:22:04,VALID,915.965,VALID,0,VALID,96.6802,VALID,0,VALID,20.834,VALID,49,VALID,0,
2013-04-22, 03:23:04,VALID,915.993,VALID,0,VALID,96.6878,VALID,0.107441,VALID,20.8129,VALID,49,VALID,0,
2013-04-22, 03:24:04,VALID,915.997,VALID,0,VALID,96.7107,VALID,0,VALID,20.8535,VALID,49,VALID,0,
2013-04-22, 03:25:04,VALID,916.009,VALID,0,VALID,96.703,VALID,0,VALID,20.834,VALID,49,VALID,0,
2013-04-22, 03:26:04,VALID,916.015,VALID,0,VALID,96.7107,VALID,0.107441,VALID,20.8535,VALID,168,VALID,0,
2013-04-22, 03:27:04,VALID,916.025,VALID,0,VALID,96.7107,VALID,0,VALID,20.8535,VALID,168,VALID,0,
2013-04-22, 03:28:04,VALID,915.995,VALID,0,VALID,96.6954,VALID,0,VALID,20.8535,VALID,173,VALID,0,
2013-04-22, 03:29:04,VALID,916.003,VALID,0,VALID,96.7183,VALID,0,VALID,20.834,VALID,173,VALID,0,
2013-04-22, 03:30:04,VALID,916.002,VALID,0,VALID,96.7259,VALID,0.107441,VALID,20.7934,VALID,173,VALID,0,
2013-04-22, 03:31:04,VALID,916.006,VALID,0,VALID,96.7259,VALID,0,VALID,20.8161,VALID,173,VALID,0,
2013-04-22, 03:32:04,VALID,915.998,VALID,0,VALID,96.7411,VALID,0,VALID,20.795,VALID,173,VALID,0,
2013-04-22, 03:33:04,VALID,915.942,VALID,0,VALID,96.7488,VALID,0,VALID,20.8161,VALID,173,VALID,0,
2013-04-22, 03:34:04,VALID,915.936,VALID,0,VALID,96.7335,VALID,0,VALID,20.8161,VALID,173,VALID,0,
2013-04-22, 03:35:04,VALID,915.912,VALID,0,VALID,96.7411,VALID,0,VALID,20.8161,VALID,173,VALID,0,
2013-04-22, 03:36:04,VALID,915.876,VALID,0,VALID,96.7411,VALID,0,VALID,20.8161,VALID,173,VALID,0,
2013-04-22, 03:37:04,VALID,915.858,VALID,0,VALID,96.7259,VALID,0,VALID,20.795,VALID,173,VALID,0,
2013-04-22, 03:38:04,VALID,915.821,VALID,0,VALID,96.7488,VALID,0,VALID,20.8161,VALID,173,VALID,0,
2013-04-22, 03:39:04,VALID,915.802,VALID,0,VALID,96.764,VALID,0,VALID,20.8145,VALID,173,VALID,0,
2013-04-22, 03:40:04,VALID,915.757,VALID,0,VALID,96.7564,VALID,0,VALID,20.8356,VALID,173,VALID,0,
2013-04-22, 03:41:04,VALID,915.745,VALID,0,VALID,96.7411,VALID,0,VALID,20.8145,VALID,212,VALID,0,
2013-04-22, 03:42:04,VALID,915.736,VALID,0,VALID,96.7183,VALID,0,VALID,20.8356,VALID,213,VALID,0,
2013-04-22, 03:43:04,VALID,915.726,VALID,0,VALID,96.7716,VALID,0,VALID,20.8356,VALID,228,VALID,0,
2013-04-22, 03:44:04,VALID,915.686,VALID,0,VALID,96.7411,VALID,0,VALID,20.8551,VALID,225,VALID,0,
2013-04-22, 03:45:04,VALID,915.696,VALID,0,VALID,96.764,VALID,0,VALID,20.8551,VALID,214,VALID,0,
2013-04-22, 03:46:04,VALID,915.662,VALID,0,VALID,96.7716,VALID,0,VALID,20.8535,VALID,239,VALID,0,
2013-04-22, 03:47:04,VALID,915.664,VALID,0,VALID,96.7793,VALID,0,VALID,20.8535,VALID,224,VALID,0,
2013-04-22, 03:48:04,VALID,915.666,VALID,0,VALID,96.7869,VALID,0,VALID,20.8535,VALID,214,VALID,0,
2013-04-22, 03:49:04,VALID,915.707,VALID,0,VALID,96.7869,VALID,0,VALID,20.8746,VALID,213,VALID,0,
2013-04-22, 03:50:04,VALID,915.748,VALID,0,VALID,96.7793,VALID,0,VALID,20.8535,VALID,213,VALID,0,
2013-04-22, 03:51:04,VALID,915.795,VALID,0,VALID,96.7564,VALID,0,VALID,20.8324,VALID,213,VALID,0,
2013-04-22, 03:52:04,VALID,915.816,VALID,0,VALID,96.7869,VALID,0,VALID,20.873,VALID,213,VALID,0,
2013-04-22, 03:53:04,VALID,915.81,VALID,0,VALID,96.7945,VALID,0,VALID,20.8519,VALID,213,VALID,0,
2013-04-22, 03:54:04,VALID,915.845,VALID,0,VALID,96.7945,VALID,0,VALID,20.873,VALID,213,VALID,0,
2013-04-22, 03:55:04,VALID,915.851,VALID,0,VALID,96.7869,VALID,0,VALID,20.873,VALID,213,VALID,0,
2013-04-22, 03:56:04,VALID,915.849,VALID,0,VALID,96.7869,VALID,0,VALID,20.873,VALID,213,VALID,0,
2013-04-22, 03:57:04,VALID,915.841,VALID,0,VALID,96.7945,VALID,0,VALID,20.873,VALID,213,VALID,0,
2013-04-22, 03:58:04,VALID,915.869,VALID,0,VALID,96.8098,VALID,0,VALID,20.873,VALID,349,VALID,0,
2013-04-22, 03:59:04,VALID,915.88,VALID,0,VALID,96.8098,VALID,0,VALID,20.912,VALID,349,VALID,0,